[[{"header":{"parameterUnit":"m.s-1","parameterCategory":1,"la1":30.2991,"la2":30.254,"lo1":-89.0895,"lo2":-89.0444,"dy":0.0017,"dx":0.0017,"nx":28,"ny":28,"refTime":"2025-12-15T03:00:00:Z","depth":0,"parameterNumber":2,"parameterNumberName":"U-component_of_WINDS"},"data":[0,0,0,0,0,0,0,0,0,0,0,0,0,0,0,0,0,0,0,0,0,0,0,0,0,0,0,0,0,0,0,0,0,0,0,0,0,0,0,0,0,0,0,0,0,0,0,0,0,0,0,0,0,0,0,0,0,0,-2.4491,-2.4492,0,-2.4568,-2.4569,-2.457,-2.4524,-2.4522,-2.452,-2.4517,-2.4596,-2.46,-2.4604,0,0,0,0,0,0,0,0,0,0,0,0,0,-2.4305,-2.4309,-2.4491,-2.4492,-2.4493,-2.4568,-2.4569,-2.457,-2.4524,-2.4522,-2.4519,-2.4516,-2.4595,-2.46,-2.4605,0,0,0,0,0,0,0,0,0,0,0,0,0,-2.4384,-2.431,-2.4491,-2.448,-2.4479,-2.4568,-2.4569,-2.457,-2.4525,-2.4522,-2.4518,-2.4515,-2.4593,-2.4599,-2.4605,-2.471,0,0,-2.4624,-2.4627,0,0,0,0,0,0,0,0,-2.438,-2.4391,-2.448,-2.448,-2.448,-2.4533,-2.4532,-2.4617,-2.4526,-2.4508,-2.4517,-2.4514,-2.4578,-2.4585,-2.4607,-2.4713,-2.4717,-2.4625,-2.4629,-2.4631,-2.4633,0,0,0,0,0,0,0,-2.4374,-2.4388,-2.4522,-2.4482,-2.4482,-2.447,-2.4478,-2.4548,-2.456,-2.4509,-2.4506,-2.4515,-2.4577,-2.4601,-2.4608,-2.4718,-2.4625,-2.463,-2.4634,-2.4637,-2.4912,-2.4915,0,0,0,0,0,0,-2.437,-2.4383,-2.4519,-2.4524,-2.4421,-2.4476,-2.4485,-2.4519,-2.4559,-2.4562,-2.4518,-2.4513,-2.4592,-2.4601,-2.4611,-2.4734,-2.4631,-2.4637,-2.4641,-2.4909,-2.4913,-2.4917,0,0,0,0,0,0,-2.4366,-2.4382,-2.4516,-2.4453,-2.4469,-2.4483,-2.4522,-2.4523,-2.4546,-2.4566,-2.4568,-2.454,-2.459,-2.4602,-2.4685,-2.4736,-2.464,-2.4646,-2.4904,-2.491,-2.4915,-2.4983,0,0,0,0,0,0,-2.4361,-2.4381,-2.4421,-2.4454,-2.4473,-2.4589,-2.4525,-2.4527,-2.4557,-2.4551,-2.4587,-2.459,-2.4588,-2.4676,-2.4691,-2.4743,-2.465,-2.49,-2.4907,-2.4913,-2.4976,-2.499,-2.5001,0,0,0,0,0,-2.4354,-2.4438,-2.4424,-2.444,-2.4523,-2.4592,-2.4603,-2.4599,-2.4561,-2.4601,-2.4614,-2.4589,-2.4728,-2.4685,-2.4702,-2.4756,-2.4896,-2.4905,-2.4913,-2.497,-2.4987,-2.5001,0,0,0,0,0,0,-2.4411,-2.4442,-2.4426,-2.4523,-2.4555,-2.4585,-2.4635,-2.4617,-2.4661,-2.4653,-2.4646,-2.4654,-2.4741,-2.4757,-2.4708,-2.4858,-2.4807,-2.4818,-2.4845,-2.4861,-2.4873,-2.4867,-2.4656,0,0,0,0,0,-2.4435,-2.4489,-2.4513,-2.4596,-2.4613,-2.4621,-2.4651,-2.4645,-2.4678,-2.4692,-2.4711,-2.4744,-2.4795,-2.4829,-2.4877,-2.4978,-2.4985,-2.5024,-2.5037,-2.5047,-2.5057,-2.511,-2.5127,-2.4943,-2.4943,-2.4943,0,0,-2.4484,-2.4508,-2.4543,-2.4608,-2.4632,-2.4688,-2.4633,-2.4695,-2.4736,-2.4701,-2.478,-2.4795,-2.4832,-2.4924,-2.4965,-2.494,-2.5109,-2.5057,-2.5066,-2.507,-2.512,-2.5138,-2.5153,-2.4949,-2.4948,-2.4947,0,0,-2.4603,-2.4627,-2.4697,-2.4723,-2.476,-2.4765,-2.4782,-2.4814,-2.4822,-2.4902,-2.4876,-2.4925,-2.5014,-2.504,-2.5066,-2.5193,-2.5171,-2.5209,-2.5276,-2.5328,-2.5342,-2.5355,-2.5399,-2.5415,-2.5219,-2.5219,-2.522,0,-2.466,-2.4743,-2.4736,-2.4799,-2.4828,-2.4799,-2.487,-2.4895,-2.4947,-2.4967,-2.4938,-2.5048,-2.507,-2.5167,-2.5198,-2.522,-2.5239,-2.5205,-2.5341,-2.5353,-2.5365,-2.5407,-2.5424,-2.5224,-2.5223,-2.5223,-2.5222,0,-2.481,-2.4868,-2.492,-2.497,-2.5005,-2.5072,-2.5075,-2.5111,-2.5102,-2.511,-2.519,-2.5216,-2.5269,-2.5291,-2.5283,-2.5387,-2.537,-2.5341,-2.5289,-2.5387,-2.5426,-2.5443,-2.523,-2.5228,-2.5227,-2.5226,0,0,-2.4966,-2.5011,-2.503,-2.5051,-2.509,-2.5135,-2.52,-2.5251,-2.5281,-2.5318,-2.5371,-2.5447,-2.542,-2.5448,-2.5443,-2.5488,-2.5586,-2.5454,-2.5454,-2.5476,-2.5701,-2.5721,-2.574,-2.5572,-2.5575,-2.5578,-2.5697,0,-2.5086,-2.52,-2.5195,-2.5301,-2.5354,-2.5327,-2.5383,-2.5413,-2.5422,-2.5468,-2.5478,-2.553,-2.5492,-2.5508,-2.5553,-2.5565,-2.5631,-2.5556,-2.5621,-2.5624,-2.5612,-2.5761,-2.5783,-2.5895,-2.5713,-2.5715,-2.5717,0,-2.5241,-2.5282,-2.5393,-2.5422,-2.5444,-2.5495,-2.554,-2.5585,-2.5618,-2.5621,-2.5652,-2.5639,-2.5705,-2.5651,-2.5741,-2.569,-2.5717,-2.5727,-2.5731,-2.5736,-2.5676,-2.5769,-2.593,-2.5947,-2.5742,-2.574,-2.5738,0,-2.5342,-2.5425,-2.5501,-2.5521,-2.5558,-2.5594,-2.5611,-2.564,-2.5671,-2.5711,-2.573,-2.5777,-2.5803,-2.584,-2.5839,-2.5801,-2.593,-2.5877,-2.5934,-2.5934,-2.5961,-2.5959,-2.6128,-2.5981,-2.598,-2.598,-2.598,0,-2.5476,-2.5544,-2.5547,-2.5594,-2.567,-2.5664,-2.5739,-2.5753,-2.5779,-2.5828,-2.5808,-2.5854,-2.5851,-2.5898,-2.5898,-2.5972,-2.5984,-2.5988,-2.5987,-2.5989,-2.5988,-2.6005,-2.5997,-2.5984,-2.5983,-2.5982,-2.5982,0,-2.5601,-2.5606,-2.5687,-2.5715,-2.5724,-2.5778,-2.5802,-2.5846,-2.5853,-2.5915,-2.5929,-2.5941,-2.5994,-2.5998,-2.606,-2.606,-2.6149,-2.614,-2.6138,-2.6136,-2.6192,-2.6186,-2.6377,-2.6401,-2.6239,-2.624,-2.6242,0,-2.5685,-2.5737,-2.5771,-2.5801,-2.582,-2.5871,-2.5901,-2.5898,-2.593,-2.5971,-2.601,-2.6062,-2.6103,-2.6191,-2.6204,-2.6251,-2.6243,-2.6306,-2.625,-2.625,-2.6242,-2.6239,-2.6243,-2.6317,-2.6319,-2.632,-2.6321,0,-2.5834,-2.5834,-2.5878,-2.5924,-2.5961,-2.5997,-2.603,-2.6057,-2.6057,-2.6094,-2.6149,-2.6181,-2.6244,-2.6295,-2.6341,-2.6358,-2.634,-2.6339,-2.6355,-2.6357,-2.6353,-2.6354,-2.6167,-2.6335,-2.6333,-2.6332,-2.6332,-2.6331,-2.5941,-2.5985,-2.6015,-2.6065,-2.609,-2.6121,-2.6163,-2.6175,-2.6221,-2.6271,-2.6267,-2.6327,-2.6357,-2.6417,-2.6438,-2.6485,-2.6463,-2.6486,-2.6491,-2.6497,-2.6502,-2.6346,-2.6493,-2.6493,-2.6492,-2.6492,-2.6492,0,-2.6087,-2.6105,-2.6151,-2.6198,-2.6237,-2.6216,-2.6251,-2.6286,-2.6339,-2.6369,-2.6409,-2.6471,-2.6521,-2.6538,-2.6586,-2.662,-2.6612,-2.6632,-2.6629,-2.6633,-2.6519,-2.65,-2.6638,-2.6637,-2.6637,-2.6637,-2.6637,-2.6637,-2.6168,-2.6241,-2.6244,-2.6329,-2.6346,-2.6405,-2.6426,-2.6455,-2.6478,-2.6548,-2.6589,-2.66,-2.6625,-2.6674,-2.6718,-2.6722,-2.674,-2.6763,-2.6764,-2.6656,-2.6642,-2.6628,-2.661,-2.6768,-2.6768,-2.6874,-2.6875,-2.6875]},{"header":{"parameterUnit":"m.s-1","parameterCategory":1,"la1":30.2991,"la2":30.254,"lo1":-89.0895,"lo2":-89.0444,"dy":0.0017,"dx":0.0017,"nx":28,"ny":28,"refTime":"2025-12-15T03:00:00:Z","depth":0,"parameterNumber":3,"parameterNumberName":"V-component_of_WINDS"},"data":[0,0,0,0,0,0,0,0,0,0,0,0,0,0,0,0,0,0,0,0,0,0,0,0,0,0,0,0,0,0,0,0,0,0,0,0,0,0,0,0,0,0,0,0,0,0,0,0,0,0,0,0,0,0,0,0,0,0,-1.8976,-1.8977,0,-1.9037,-1.9038,-1.9039,-1.9046,-1.9045,-1.9045,-1.9044,-1.9106,-1.9108,-1.911,0,0,0,0,0,0,0,0,0,0,0,0,0,-1.8864,-1.8866,-1.8976,-1.8977,-1.8978,-1.9037,-1.9038,-1.9039,-1.9046,-1.9045,-1.9045,-1.9044,-1.9105,-1.9108,-1.9111,0,0,0,0,0,0,0,0,0,0,0,0,0,-1.8917,-1.8866,-1.8976,-1.8988,-1.899,-1.9037,-1.9038,-1.9039,-1.9046,-1.9045,-1.9044,-1.9044,-1.9105,-1.9108,-1.9111,-1.9149,0,0,-1.9121,-1.9123,0,0,0,0,0,0,0,0,-1.8914,-1.8921,-1.8986,-1.8988,-1.899,-1.9033,-1.9021,-1.9076,-1.9046,-1.9025,-1.9044,-1.9043,-1.9082,-1.9088,-1.9101,-1.9152,-1.9155,-1.9121,-1.9123,-1.9125,-1.9126,0,0,0,0,0,0,0,-1.8911,-1.8919,-1.9,-1.8987,-1.8989,-1.899,-1.8997,-1.9031,-1.9058,-1.9027,-1.9027,-1.9035,-1.9083,-1.9098,-1.9102,-1.9156,-1.9121,-1.9124,-1.9126,-1.9128,-1.924,-1.924,0,0,0,0,0,0,-1.8905,-1.8916,-1.8998,-1.9002,-1.8949,-1.8993,-1.9001,-1.902,-1.9058,-1.9063,-1.9035,-1.9035,-1.9093,-1.9099,-1.9105,-1.9151,-1.9125,-1.9128,-1.913,-1.9239,-1.924,-1.9241,0,0,0,0,0,0,-1.8902,-1.8912,-1.8996,-1.8959,-1.897,-1.8996,-1.9018,-1.9022,-1.9036,-1.9064,-1.9069,-1.9045,-1.9092,-1.91,-1.9138,-1.9153,-1.9129,-1.9132,-1.9237,-1.9239,-1.924,-1.9244,0,0,0,0,0,0,-1.8899,-1.8911,-1.8927,-1.8959,-1.8972,-1.9029,-1.9019,-1.9024,-1.9042,-1.9042,-1.9075,-1.9079,-1.9092,-1.9133,-1.9141,-1.9157,-1.9135,-1.9236,-1.9238,-1.924,-1.9243,-1.9245,-1.9248,0,0,0,0,0,-1.8895,-1.8926,-1.8927,-1.8937,-1.8992,-1.903,-1.9037,-1.9051,-1.9043,-1.9058,-1.9076,-1.9078,-1.915,-1.9137,-1.9146,-1.9163,-1.9235,-1.9237,-1.924,-1.9241,-1.9245,-1.9248,0,0,0,0,0,0,-1.8894,-1.893,-1.8933,-1.8975,-1.8999,-1.9031,-1.9051,-1.9054,-1.9081,-1.908,-1.9096,-1.9103,-1.914,-1.9156,-1.914,-1.9201,-1.9192,-1.9196,-1.919,-1.9193,-1.9196,-1.9191,-1.9138,0,0,0,0,0,-1.8899,-1.8927,-1.8957,-1.8991,-1.9003,-1.9025,-1.9042,-1.905,-1.9076,-1.9086,-1.9107,-1.9131,-1.9159,-1.9177,-1.9205,-1.9245,-1.9251,-1.9261,-1.9264,-1.9266,-1.9269,-1.929,-1.9294,-1.9248,-1.9248,-1.9248,0,0,-1.8909,-1.8932,-1.8949,-1.8991,-1.9011,-1.9039,-1.9033,-1.9063,-1.9084,-1.9091,-1.9127,-1.9143,-1.9171,-1.921,-1.9228,-1.9224,-1.9283,-1.9269,-1.927,-1.9272,-1.9292,-1.9297,-1.9301,-1.925,-1.9249,-1.9249,0,0,-1.8941,-1.8962,-1.8992,-1.9012,-1.9041,-1.9055,-1.9062,-1.9093,-1.9104,-1.9141,-1.9146,-1.917,-1.9219,-1.9238,-1.9254,-1.9291,-1.9294,-1.93,-1.9313,-1.9333,-1.9337,-1.934,-1.9352,-1.9357,-1.9303,-1.9303,-1.9303,0,-1.895,-1.8992,-1.9007,-1.9036,-1.9054,-1.9061,-1.9091,-1.9109,-1.9146,-1.9158,-1.9153,-1.9213,-1.9232,-1.9275,-1.9284,-1.9297,-1.9305,-1.9296,-1.9335,-1.9339,-1.9342,-1.9354,-1.9358,-1.9304,-1.9304,-1.9304,-1.9304,0,-1.9001,-1.903,-1.9051,-1.9086,-1.9106,-1.9136,-1.9153,-1.9172,-1.9178,-1.9192,-1.9229,-1.9253,-1.9284,-1.9295,-1.9302,-1.9338,-1.9334,-1.9332,-1.9323,-1.9347,-1.9358,-1.9363,-1.9304,-1.9304,-1.9304,-1.9304,0,0,-1.9035,-1.9077,-1.9084,-1.9099,-1.9132,-1.9154,-1.9183,-1.9214,-1.9229,-1.9254,-1.9278,-1.9318,-1.9315,-1.9333,-1.9342,-1.936,-1.9386,-1.9356,-1.9357,-1.936,-1.9426,-1.9427,-1.9432,-1.9388,-1.9389,-1.939,-1.9423,0,-1.907,-1.9123,-1.9136,-1.918,-1.9206,-1.9213,-1.9238,-1.926,-1.9273,-1.9297,-1.9312,-1.9339,-1.9335,-1.9345,-1.9363,-1.938,-1.94,-1.9377,-1.941,-1.9411,-1.9402,-1.9438,-1.9439,-1.947,-1.9428,-1.9429,-1.9429,0,-1.9119,-1.9144,-1.9191,-1.9218,-1.923,-1.9252,-1.928,-1.9303,-1.9328,-1.9336,-1.9356,-1.9363,-1.9392,-1.9381,-1.9421,-1.9405,-1.9419,-1.9429,-1.9431,-1.9434,-1.9421,-1.9441,-1.948,-1.9484,-1.9436,-1.9436,-1.9435,0,-1.9138,-1.9183,-1.9217,-1.923,-1.9263,-1.9278,-1.9293,-1.9317,-1.9333,-1.9358,-1.9369,-1.9396,-1.9411,-1.9432,-1.9445,-1.9436,-1.9484,-1.9474,-1.9491,-1.949,-1.95,-1.9499,-1.9541,-1.951,-1.951,-1.951,-1.951,0,-1.9175,-1.9203,-1.9226,-1.9246,-1.9277,-1.9291,-1.9321,-1.9336,-1.9357,-1.9379,-1.9386,-1.9407,-1.9424,-1.9447,-1.9458,-1.9489,-1.9496,-1.9503,-1.9505,-1.9502,-1.9501,-1.9511,-1.9509,-1.9511,-1.9511,-1.9511,-1.9511,0,-1.9202,-1.9218,-1.9255,-1.9282,-1.929,-1.9311,-1.9335,-1.9354,-1.9368,-1.9396,-1.9404,-1.9424,-1.9451,-1.9467,-1.9502,-1.9509,-1.9542,-1.9544,-1.9534,-1.9535,-1.955,-1.9548,-1.9599,-1.9606,-1.9571,-1.9572,-1.9572,0,-1.9225,-1.9246,-1.9276,-1.9291,-1.9306,-1.9331,-1.9348,-1.9362,-1.9379,-1.9408,-1.9424,-1.9451,-1.9474,-1.9517,-1.9535,-1.9561,-1.9563,-1.9579,-1.9567,-1.9563,-1.9562,-1.956,-1.9562,-1.9581,-1.9581,-1.9582,-1.9582,0,-1.9263,-1.9269,-1.9294,-1.932,-1.934,-1.9362,-1.9383,-1.9395,-1.9413,-1.9432,-1.9459,-1.9477,-1.9512,-1.9539,-1.9566,-1.958,-1.9583,-1.9585,-1.959,-1.9587,-1.958,-1.9583,-1.9539,-1.9584,-1.9584,-1.9584,-1.9584,-1.9584,-1.9287,-1.9306,-1.933,-1.9356,-1.9373,-1.9393,-1.9412,-1.9427,-1.945,-1.9479,-1.9486,-1.9515,-1.9537,-1.9574,-1.9589,-1.9611,-1.9608,-1.9616,-1.9618,-1.9619,-1.9619,-1.9576,-1.9616,-1.9616,-1.9616,-1.9616,-1.9616,0,-1.9325,-1.934,-1.9364,-1.9393,-1.9413,-1.9415,-1.9438,-1.9455,-1.948,-1.9501,-1.9523,-1.9554,-1.9579,-1.9598,-1.9624,-1.9638,-1.9641,-1.9645,-1.9644,-1.9646,-1.9621,-1.9613,-1.9642,-1.9642,-1.9642,-1.9642,-1.9642,-1.9642,-1.9347,-1.9378,-1.9387,-1.9426,-1.9441,-1.9469,-1.9482,-1.95,-1.9516,-1.955,-1.9571,-1.9584,-1.9603,-1.963,-1.9654,-1.9658,-1.9667,-1.9671,-1.9676,-1.9651,-1.9649,-1.9646,-1.9639,-1.9673,-1.9673,-1.97,-1.97,-1.97]}]]